,,PressureMeas_1m,,PRMeasQMR101_1,,RHStat155_1m_1,,SRMeasQMS101R_1m,,TAStat155_1m_1,,GenWind_1,,GenWind_1,
2018-12-11, 00:00:06,VALID,918.558,VALID,0.0,VALID,98.838,VALID,0.002,VALID,19.456,VALID,269.0,VALID,0.0,
2018-12-11, 00:01:06,VALID,918.536,VALID,0.0,VALID,98.791,VALID,0.003,VALID,19.427,VALID,283.0,VALID,0.0,
2018-12-11, 00:02:06,VALID,918.529,VALID,0.0,VALID,98.674,VALID,-0.012,VALID,19.448,VALID,276.0,VALID,0.0,
2018-12-11, 00:03:06,VALID,918.515,VALID,0.0,VALID,98.614,VALID,-0.02,VALID,19.464,VALID,290.0,VALID,0.0,
2018-12-11, 00:04:06,VALID,918.509,VALID,0.0,VALID,98.549,VALID,-0.009,VALID,19.497,VALID,290.0,VALID,0.0,
2018-12-11, 00:05:06,VALID,918.513,VALID,0.0,VALID,98.578,VALID,-0.017,VALID,19.566,VALID,290.0,VALID,0.0,
2018-12-11, 00:06:06,VALID,918.506,VALID,0.0,VALID,98.605,VALID,-0.028,VALID,19.606,VALID,290.0,VALID,0.0,
2018-12-11, 00:07:06,VALID,918.495,VALID,0.0,VALID,98.665,VALID,0.014,VALID,19.65,VALID,291.0,VALID,0.0,
2018-12-11, 00:08:06,VALID,918.488,VALID,0.0,VALID,98.623,VALID,0.016,VALID,19.64,VALID,320.0,VALID,0.0,
2018-12-11, 00:09:06,VALID,918.482,VALID,0.0,VALID,98.743,VALID,0.013,VALID,19.712,VALID,28.0,VALID,0.0,
2018-12-11, 00:10:06,VALID,918.469,VALID,0.0,VALID,98.69,VALID,-0.004,VALID,19.679,VALID,28.0,VALID,0.0,
2018-12-11, 00:11:06,VALID,918.487,VALID,0.0,VALID,98.519,VALID,-0.027,VALID,19.579,VALID,28.0,VALID,0.0,
2018-12-11, 00:12:06,VALID,918.481,VALID,0.0,VALID,98.543,VALID,-0.031,VALID,19.569,VALID,29.0,VALID,0.0,
2018-12-11, 00:13:06,VALID,918.482,VALID,0.0,VALID,98.616,VALID,-0.022,VALID,19.584,VALID,34.0,VALID,0.0,
2018-12-11, 00:14:06,VALID,918.488,VALID,0.0,VALID,98.686,VALID,-0.018,VALID,19.614,VALID,37.0,VALID,0.0,
2018-12-11, 00:15:06,VALID,918.502,VALID,0.0,VALID,98.686,VALID,0.0,VALID,19.625,VALID,29.0,VALID,0.0,
2018-12-11, 00:16:06,VALID,918.511,VALID,0.0,VALID,98.675,VALID,-0.03,VALID,19.611,VALID,23.0,VALID,0.0,
2018-12-11, 00:17:06,VALID,918.506,VALID,0.0,VALID,98.77,VALID,-0.015,VALID,19.652,VALID,22.0,VALID,0.0,
2018-12-11, 00:18:06,VALID,918.51,VALID,0.0,VALID,98.756,VALID,-0.008,VALID,19.643,VALID,11.0,VALID,0.0,
2018-12-11, 00:19:06,VALID,918.522,VALID,0.0,VALID,98.805,VALID,-0.009,VALID,19.661,VALID,9.0,VALID,0.0,
2018-12-11, 00:20:06,VALID,918.518,VALID,0.0,VALID,98.816,VALID,-0.007,VALID,19.66,VALID,26.0,VALID,0.0,
2018-12-11, 00:21:06,VALID,918.504,VALID,0.0,VALID,98.884,VALID,-0.026,VALID,19.681,VALID,45.0,VALID,0.0,
2018-12-11, 00:22:06,VALID,918.494,VALID,0.0,VALID,98.839,VALID,-0.003,VALID,19.658,VALID,37.0,VALID,0.0,
2018-12-11, 00:23:06,VALID,918.485,VALID,0.0,VALID,98.833,VALID,-0.007,VALID,19.626,VALID,45.0,VALID,0.0,
2018-12-11, 00:24:06,VALID,918.474,VALID,0.0,VALID,98.905,VALID,-0.025,VALID,19.653,VALID,47.0,VALID,0.0,
2018-12-11, 00:25:06,VALID,918.457,VALID,0.0,VALID,98.897,VALID,0.001,VALID,19.64,VALID,63.0,VALID,0.0,
2018-12-11, 00:26:06,VALID,918.451,VALID,0.0,VALID,98.902,VALID,0.021,VALID,19.611,VALID,76.0,VALID,0.0,
2018-12-11, 00:27:06,VALID,918.443,VALID,0.0,VALID,98.89,VALID,0.001,VALID,19.596,VALID,90.0,VALID,0.0,
2018-12-11, 00:28:06,VALID,918.412,VALID,0.0,VALID,98.908,VALID,0.015,VALID,19.598,VALID,91.0,VALID,0.0,
2018-12-11, 00:29:06,VALID,918.429,VALID,0.0,VALID,98.978,VALID,0.029,VALID,19.64,VALID,88.0,VALID,0.0,
2018-12-11, 00:30:06,VALID,918.434,VALID,0.0,VALID,99.006,VALID,0.023,VALID,19.67,VALID,77.0,VALID,0.0,
2018-12-11, 00:31:06,VALID,918.4,VALID,0.0,VALID,99.03,VALID,0.007,VALID,19.686,VALID,76.0,VALID,0.0,
2018-12-11, 00:32:06,VALID,918.41,VALID,0.0,VALID,99.03,VALID,0.01,VALID,19.688,VALID,76.0,VALID,0.0,
2018-12-11, 00:33:06,VALID,918.392,VALID,0.0,VALID,98.978,VALID,0.017,VALID,19.657,VALID,76.0,VALID,0.0,
2018-12-11, 00:34:06,VALID,918.395,VALID,0.0,VALID,99.002,VALID,0.04,VALID,19.643,VALID,76.0,VALID,0.0,
2018-12-11, 00:35:06,VALID,918.388,VALID,0.0,VALID,98.999,VALID,0.024,VALID,19.631,VALID,76.0,VALID,0.0,
2018-12-11, 00:36:06,VALID,918.382,VALID,0.0,VALID,99.03,VALID,0.013,VALID,19.661,VALID,76.0,VALID,0.0,
2018-12-11, 00:37:06,VALID,918.375,VALID,0.0,VALID,99.053,VALID,0.006,VALID,19.683,VALID,76.0,VALID,0.0,
2018-12-11, 00:38:06,VALID,918.35,VALID,0.0,VALID,99.077,VALID,0.019,VALID,19.699,VALID,76.0,VALID,0.0,
2018-12-11, 00:39:06,VALID,918.348,VALID,0.0,VALID,99.067,VALID,0.016,VALID,19.704,VALID,76.0,VALID,0.0,
2018-12-11, 00:40:06,VALID,918.346,VALID,0.0,VALID,99.062,VALID,-0.012,VALID,19.698,VALID,75.0,VALID,0.0,
2018-12-11, 00:41:06,VALID,918.308,VALID,0.0,VALID,99.084,VALID,0.01,VALID,19.723,VALID,74.0,VALID,0.0,
2018-12-11, 00:42:06,VALID,918.316,VALID,0.0,VALID,99.056,VALID,0.008,VALID,19.698,VALID,70.0,VALID,0.0,
2018-12-11, 00:43:06,VALID,918.307,VALID,0.0,VALID,99.037,VALID,0.006,VALID,19.653,VALID,68.0,VALID,0.0,
2018-12-11, 00:44:06,VALID,918.288,VALID,0.0,VALID,99.034,VALID,0.015,VALID,19.619,VALID,71.0,VALID,0.0,
2018-12-11, 00:45:06,VALID,918.299,VALID,0.0,VALID,99.009,VALID,-0.001,VALID,19.59,VALID,79.0,VALID,0.0,
2018-12-11, 00:46:06,VALID,918.287,VALID,0.0,VALID,99.005,VALID,-0.001,VALID,19.579,VALID,85.0,VALID,0.0,
2018-12-11, 00:47:06,VALID,918.296,VALID,0.0,VALID,99.034,VALID,-0.011,VALID,19.577,VALID,95.0,VALID,0.0,
2018-12-11, 00:48:06,VALID,918.29,VALID,0.0,VALID,99.03,VALID,0.0,VALID,19.574,VALID,88.0,VALID,0.0,
2018-12-11, 00:49:06,VALID,918.289,VALID,0.0,VALID,99.045,VALID,0.001,VALID,19.6,VALID,95.0,VALID,0.0,
2018-12-11, 00:50:06,VALID,918.301,VALID,0.0,VALID,99.034,VALID,-0.004,VALID,19.606,VALID,94.0,VALID,0.0,
2018-12-11, 00:51:06,VALID,918.291,VALID,0.0,VALID,99.044,VALID,-0.008,VALID,19.624,VALID,95.0,VALID,0.0,
2018-12-11, 00:52:06,VALID,918.286,VALID,0.0,VALID,99.018,VALID,-0.0,VALID,19.624,VALID,94.0,VALID,0.0,
2018-12-11, 00:53:06,VALID,918.259,VALID,0.0,VALID,99.046,VALID,-0.004,VALID,19.639,VALID,109.0,VALID,0.0,
2018-12-11, 00:54:06,VALID,918.258,VALID,0.0,VALID,99.047,VALID,-0.008,VALID,19.634,VALID,117.0,VALID,0.0,
2018-12-11, 00:55:06,VALID,918.245,VALID,0.0,VALID,99.038,VALID,-0.011,VALID,19.625,VALID,114.0,VALID,0.0,
2018-12-11, 00:56:06,VALID,918.217,VALID,0.0,VALID,99.053,VALID,-0.01,VALID,19.626,VALID,111.0,VALID,0.0,
2018-12-11, 00:57:06,VALID,918.199,VALID,0.0,VALID,99.083,VALID,-0.015,VALID,19.64,VALID,100.0,VALID,0.0,
2018-12-11, 00:58:06,VALID,918.166,VALID,0.0,VALID,99.088,VALID,-0.007,VALID,19.654,VALID,113.0,VALID,0.0,
2018-12-11, 00:59:06,VALID,918.154,VALID,0.0,VALID,99.109,VALID,-0.018,VALID,19.652,VALID,117.0,VALID,0.0,
2018-12-11, 01:00:06,VALID,918.13,VALID,0.0,VALID,99.095,VALID,-0.024,VALID,19.641,VALID,106.0,VALID,0.0,
2018-12-11, 01:01:06,VALID,918.12,VALID,0.0,VALID,99.12,VALID,-0.001,VALID,19.64,VALID,98.0,VALID,0.0,
2018-12-11, 01:02:06,VALID,918.093,VALID,0.0,VALID,99.107,VALID,-0.014,VALID,19.644,VALID,93.0,VALID,0.0,
2018-12-11, 01:03:06,VALID,918.087,VALID,0.0,VALID,99.129,VALID,0.001,VALID,19.674,VALID,95.0,VALID,0.0,
2018-12-11, 01:04:06,VALID,918.079,VALID,0.0,VALID,99.115,VALID,-0.004,VALID,19.667,VALID,98.0,VALID,0.0,
2018-12-11, 01:05:06,VALID,918.054,VALID,0.0,VALID,99.118,VALID,-0.019,VALID,19.661,VALID,97.0,VALID,0.0,
2018-12-11, 01:06:06,VALID,918.049,VALID,0.0,VALID,99.136,VALID,-0.014,VALID,19.664,VALID,103.0,VALID,0.0,
2018-12-11, 01:07:06,VALID,918.027,VALID,0.0,VALID,99.128,VALID,-0.0,VALID,19.658,VALID,109.0,VALID,0.0,
2018-12-11, 01:08:06,VALID,918.006,VALID,0.0,VALID,99.126,VALID,0.016,VALID,19.644,VALID,109.0,VALID,0.0,
2018-12-11, 01:09:06,VALID,917.987,VALID,0.0,VALID,99.116,VALID,-0.003,VALID,19.624,VALID,110.0,VALID,0.0,
2018-12-11, 01:10:06,VALID,917.953,VALID,0.0,VALID,99.136,VALID,-0.015,VALID,19.642,VALID,119.0,VALID,0.0,
2018-12-11, 01:11:06,VALID,917.938,VALID,0.0,VALID,99.146,VALID,-0.024,VALID,19.683,VALID,121.0,VALID,0.0,
2018-12-11, 01:12:06,VALID,917.912,VALID,0.0,VALID,99.154,VALID,-0.044,VALID,19.712,VALID,123.0,VALID,0.0,
2018-12-11, 01:13:06,VALID,917.894,VALID,0.0,VALID,99.198,VALID,-0.026,VALID,19.811,VALID,125.0,VALID,0.0,
2018-12-11, 01:14:06,VALID,917.862,VALID,0.0,VALID,99.166,VALID,-0.032,VALID,19.765,VALID,149.0,VALID,0.0,
2018-12-11, 01:15:06,VALID,917.844,VALID,0.0,VALID,99.14,VALID,-0.02,VALID,19.748,VALID,173.0,VALID,0.0,
2018-12-11, 01:16:06,VALID,917.823,VALID,0.0,VALID,99.148,VALID,-0.007,VALID,19.737,VALID,173.0,VALID,0.0,
2018-12-11, 01:17:06,VALID,917.806,VALID,0.0,VALID,99.148,VALID,-0.018,VALID,19.733,VALID,173.0,VALID,0.0,
2018-12-11, 01:18:06,VALID,917.798,VALID,0.0,VALID,99.113,VALID,-0.019,VALID,19.713,VALID,173.0,VALID,0.0,
2018-12-11, 01:19:06,VALID,917.786,VALID,0.0,VALID,99.127,VALID,-0.019,VALID,19.699,VALID,167.0,VALID,0.0,
2018-12-11, 01:20:06,VALID,917.77,VALID,0.0,VALID,99.147,VALID,-0.01,VALID,19.715,VALID,137.0,VALID,0.0,
2018-12-11, 01:21:06,VALID,917.791,VALID,0.0,VALID,99.124,VALID,-0.022,VALID,19.686,VALID,116.0,VALID,0.0,
2018-12-11, 01:22:06,VALID,917.774,VALID,0.0,VALID,99.08,VALID,-0.011,VALID,19.601,VALID,122.0,VALID,0.0,
2018-12-11, 01:23:06,VALID,917.731,VALID,0.0,VALID,99.059,VALID,-0.011,VALID,19.567,VALID,116.0,VALID,0.0,
2018-12-11, 01:24:06,VALID,917.735,VALID,0.0,VALID,99.068,VALID,-0.026,VALID,19.548,VALID,112.0,VALID,0.0,
2018-12-11, 01:25:06,VALID,917.711,VALID,0.0,VALID,99.077,VALID,-0.019,VALID,19.55,VALID,100.0,VALID,0.0,
2018-12-11, 01:26:06,VALID,917.7,VALID,0.0,VALID,99.069,VALID,0.0,VALID,19.527,VALID,99.0,VALID,0.0,
2018-12-11, 01:27:06,VALID,917.688,VALID,0.0,VALID,99.079,VALID,-0.005,VALID,19.53,VALID,100.0,VALID,0.0,
2018-12-11, 01:28:06,VALID,917.676,VALID,0.0,VALID,99.066,VALID,0.002,VALID,19.524,VALID,100.0,VALID,0.0,
2018-12-11, 01:29:06,VALID,917.654,VALID,0.0,VALID,99.066,VALID,-0.011,VALID,19.511,VALID,100.0,VALID,0.0,
2018-12-11, 01:30:06,VALID,917.624,VALID,0.0,VALID,99.06,VALID,-0.007,VALID,19.505,VALID,100.0,VALID,0.0,
2018-12-11, 01:31:06,VALID,917.597,VALID,0.0,VALID,99.06,VALID,-0.008,VALID,19.504,VALID,100.0,VALID,0.0,
2018-12-11, 01:32:06,VALID,917.575,VALID,0.0,VALID,99.07,VALID,-0.015,VALID,19.509,VALID,100.0,VALID,0.0,
2018-12-11, 01:33:06,VALID,917.568,VALID,0.0,VALID,99.086,VALID,-0.018,VALID,19.522,VALID,100.0,VALID,0.0,
2018-12-11, 01:34:06,VALID,917.541,VALID,0.0,VALID,99.154,VALID,-0.006,VALID,19.597,VALID,99.0,VALID,0.0,
2018-12-11, 01:35:06,VALID,917.532,VALID,0.0,VALID,99.187,VALID,-0.007,VALID,19.663,VALID,98.0,VALID,0.0,
2018-12-11, 01:36:06,VALID,917.505,VALID,0.0,VALID,99.148,VALID,-0.012,VALID,19.683,VALID,98.0,VALID,0.0,
2018-12-11, 01:37:06,VALID,917.47,VALID,0.0,VALID,99.16,VALID,-0.009,VALID,19.696,VALID,87.0,VALID,0.0,
2018-12-11, 01:38:06,VALID,917.438,VALID,0.0,VALID,99.15,VALID,0.0,VALID,19.686,VALID,84.0,VALID,0.0,
2018-12-11, 01:39:06,VALID,917.425,VALID,0.0,VALID,99.179,VALID,-0.008,VALID,19.72,VALID,83.0,VALID,0.0,
2018-12-11, 01:40:06,VALID,917.408,VALID,0.0,VALID,99.134,VALID,-0.006,VALID,19.672,VALID,60.0,VALID,0.0,
2018-12-11, 01:41:06,VALID,917.398,VALID,0.0,VALID,99.121,VALID,-0.013,VALID,19.642,VALID,54.0,VALID,0.0,
2018-12-11, 01:42:06,VALID,917.381,VALID,0.0,VALID,99.177,VALID,-0.004,VALID,19.705,VALID,53.0,VALID,0.0,
2018-12-11, 01:43:06,VALID,917.376,VALID,0.0,VALID,99.225,VALID,-0.008,VALID,19.781,VALID,53.0,VALID,0.0,
2018-12-11, 01:44:06,VALID,917.378,VALID,0.0,VALID,99.208,VALID,-0.016,VALID,19.792,VALID,53.0,VALID,0.0,
2018-12-11, 01:45:06,VALID,917.353,VALID,0.0,VALID,99.179,VALID,-0.008,VALID,19.784,VALID,53.0,VALID,0.0,
2018-12-11, 01:46:06,VALID,917.35,VALID,0.0,VALID,99.141,VALID,-0.007,VALID,19.745,VALID,53.0,VALID,0.0,
2018-12-11, 01:47:06,VALID,917.341,VALID,0.0,VALID,99.164,VALID,-0.023,VALID,19.71,VALID,54.0,VALID,0.0,
2018-12-11, 01:48:06,VALID,917.35,VALID,0.0,VALID,99.133,VALID,-0.022,VALID,19.66,VALID,79.0,VALID,0.0,
2018-12-11, 01:49:06,VALID,917.339,VALID,0.0,VALID,99.122,VALID,-0.008,VALID,19.628,VALID,96.0,VALID,0.0,
2018-12-11, 01:50:06,VALID,917.355,VALID,0.0,VALID,99.145,VALID,0.002,VALID,19.618,VALID,95.0,VALID,0.0,
2018-12-11, 01:51:06,VALID,917.346,VALID,0.0,VALID,99.153,VALID,0.0,VALID,19.619,VALID,98.0,VALID,0.0,
2018-12-11, 01:52:06,VALID,917.349,VALID,0.0,VALID,99.164,VALID,-0.012,VALID,19.623,VALID,103.0,VALID,0.0,
2018-12-11, 01:53:06,VALID,917.338,VALID,0.0,VALID,99.151,VALID,-0.002,VALID,19.611,VALID,106.0,VALID,0.0,
2018-12-11, 01:54:06,VALID,917.315,VALID,0.0,VALID,99.132,VALID,-0.008,VALID,19.575,VALID,112.0,VALID,0.0,
2018-12-11, 01:55:06,VALID,917.309,VALID,0.0,VALID,99.124,VALID,-0.013,VALID,19.524,VALID,105.0,VALID,0.0,
2018-12-11, 01:56:06,VALID,917.27,VALID,0.0,VALID,99.143,VALID,0.019,VALID,19.513,VALID,112.0,VALID,0.0,
2018-12-11, 01:57:06,VALID,917.27,VALID,0.0,VALID,99.145,VALID,0.012,VALID,19.487,VALID,120.0,VALID,0.0,
2018-12-11, 01:58:06,VALID,917.26,VALID,0.0,VALID,99.133,VALID,0.002,VALID,19.482,VALID,123.0,VALID,0.0,
2018-12-11, 01:59:06,VALID,917.243,VALID,0.0,VALID,99.141,VALID,-0.0,VALID,19.479,VALID,120.0,VALID,0.0,
2018-12-11, 02:00:06,VALID,917.25,VALID,0.0,VALID,99.159,VALID,-0.006,VALID,19.489,VALID,130.0,VALID,0.0,
2018-12-11, 02:01:06,VALID,917.238,VALID,0.0,VALID,99.175,VALID,0.009,VALID,19.495,VALID,115.0,VALID,0.0,
2018-12-11, 02:02:06,VALID,917.269,VALID,0.0,VALID,99.167,VALID,-0.001,VALID,19.47,VALID,111.0,VALID,0.0,
2018-12-11, 02:03:06,VALID,917.254,VALID,0.0,VALID,99.18,VALID,-0.001,VALID,19.464,VALID,103.0,VALID,0.0,
2018-12-11, 02:04:06,VALID,917.265,VALID,0.0,VALID,99.187,VALID,0.011,VALID,19.457,VALID,106.0,VALID,0.0,
2018-12-11, 02:05:06,VALID,917.273,VALID,0.0,VALID,99.176,VALID,0.043,VALID,19.444,VALID,112.0,VALID,0.0,
2018-12-11, 02:06:06,VALID,917.263,VALID,0.0,VALID,99.181,VALID,0.015,VALID,19.445,VALID,108.0,VALID,0.0,
2018-12-11, 02:07:06,VALID,917.249,VALID,0.0,VALID,99.18,VALID,0.012,VALID,19.443,VALID,113.0,VALID,0.0,
2018-12-11, 02:08:06,VALID,917.245,VALID,0.0,VALID,99.196,VALID,0.021,VALID,19.449,VALID,115.0,VALID,0.0,
2018-12-11, 02:09:06,VALID,917.232,VALID,0.0,VALID,99.199,VALID,0.008,VALID,19.461,VALID,106.0,VALID,0.0,
2018-12-11, 02:10:06,VALID,917.242,VALID,0.0,VALID,99.212,VALID,-0.006,VALID,19.468,VALID,114.0,VALID,0.0,
2018-12-11, 02:11:06,VALID,917.227,VALID,0.0,VALID,99.216,VALID,-0.011,VALID,19.45,VALID,115.0,VALID,0.0,
2018-12-11, 02:12:06,VALID,917.219,VALID,0.0,VALID,99.21,VALID,0.004,VALID,19.446,VALID,113.0,VALID,0.0,
2018-12-11, 02:13:06,VALID,917.22,VALID,0.0,VALID,99.207,VALID,-0.007,VALID,19.43,VALID,110.0,VALID,0.0,
2018-12-11, 02:14:06,VALID,917.209,VALID,0.0,VALID,99.208,VALID,-0.006,VALID,19.435,VALID,104.0,VALID,0.0,
2018-12-11, 02:15:06,VALID,917.206,VALID,0.0,VALID,99.228,VALID,-0.004,VALID,19.44,VALID,106.0,VALID,0.0,
2018-12-11, 02:16:06,VALID,917.19,VALID,0.0,VALID,99.223,VALID,0.01,VALID,19.442,VALID,108.0,VALID,0.0,
2018-12-11, 02:17:06,VALID,917.181,VALID,0.0,VALID,99.215,VALID,-0.008,VALID,19.453,VALID,99.0,VALID,0.0,
2018-12-11, 02:18:06,VALID,917.152,VALID,0.0,VALID,99.216,VALID,-0.009,VALID,19.467,VALID,99.0,VALID,0.0,
2018-12-11, 02:19:06,VALID,917.126,VALID,0.0,VALID,99.211,VALID,-0.001,VALID,19.475,VALID,101.0,VALID,0.0,
2018-12-11, 02:20:06,VALID,917.112,VALID,0.0,VALID,99.216,VALID,0.002,VALID,19.484,VALID,100.0,VALID,0.0,
2018-12-11, 02:21:06,VALID,917.083,VALID,0.0,VALID,99.194,VALID,-0.027,VALID,19.501,VALID,99.0,VALID,0.0,
2018-12-11, 02:22:06,VALID,917.074,VALID,0.0,VALID,99.195,VALID,-0.019,VALID,19.505,VALID,99.0,VALID,0.0,
2018-12-11, 02:23:06,VALID,917.054,VALID,0.0,VALID,99.174,VALID,-0.023,VALID,19.499,VALID,98.0,VALID,0.0,
2018-12-11, 02:24:06,VALID,917.027,VALID,0.0,VALID,99.167,VALID,-0.013,VALID,19.507,VALID,90.0,VALID,0.0,
2018-12-11, 02:25:06,VALID,917.004,VALID,0.0,VALID,99.184,VALID,-0.005,VALID,19.532,VALID,89.0,VALID,0.0,
2018-12-11, 02:26:06,VALID,916.976,VALID,0.0,VALID,99.164,VALID,0.027,VALID,19.54,VALID,88.0,VALID,0.0,
2018-12-11, 02:27:06,VALID,916.959,VALID,0.0,VALID,99.152,VALID,0.022,VALID,19.527,VALID,88.0,VALID,0.0,
2018-12-11, 02:28:06,VALID,916.943,VALID,0.0,VALID,99.132,VALID,0.002,VALID,19.516,VALID,88.0,VALID,0.0,
2018-12-11, 02:29:06,VALID,916.922,VALID,0.0,VALID,99.115,VALID,0.003,VALID,19.516,VALID,99.0,VALID,0.0,
2018-12-11, 02:30:06,VALID,916.902,VALID,0.0,VALID,99.122,VALID,0.015,VALID,19.513,VALID,108.0,VALID,0.0,
2018-12-11, 02:31:06,VALID,916.889,VALID,0.0,VALID,99.104,VALID,0.021,VALID,19.531,VALID,108.0,VALID,0.0,
2018-12-11, 02:32:06,VALID,916.874,VALID,0.0,VALID,99.113,VALID,0.01,VALID,19.551,VALID,109.0,VALID,0.0,
2018-12-11, 02:33:06,VALID,916.877,VALID,0.0,VALID,99.089,VALID,-0.003,VALID,19.545,VALID,109.0,VALID,0.0,
2018-12-11, 02:34:06,VALID,916.889,VALID,0.0,VALID,99.04,VALID,0.02,VALID,19.545,VALID,109.0,VALID,0.0,
2018-12-11, 02:35:06,VALID,916.879,VALID,0.0,VALID,99.027,VALID,0.022,VALID,19.548,VALID,112.0,VALID,0.0,
2018-12-11, 02:36:06,VALID,916.875,VALID,0.0,VALID,99.012,VALID,0.014,VALID,19.562,VALID,124.0,VALID,0.0,
2018-12-11, 02:37:06,VALID,916.871,VALID,0.0,VALID,99.002,VALID,0.012,VALID,19.584,VALID,123.0,VALID,0.0,
2018-12-11, 02:38:06,VALID,916.866,VALID,0.0,VALID,98.997,VALID,0.009,VALID,19.582,VALID,110.0,VALID,0.0,
2018-12-11, 02:39:06,VALID,916.873,VALID,0.0,VALID,98.968,VALID,0.022,VALID,19.579,VALID,103.0,VALID,0.0,
2018-12-11, 02:40:06,VALID,916.863,VALID,0.0,VALID,98.952,VALID,-0.003,VALID,19.587,VALID,106.0,VALID,0.0,
2018-12-11, 02:41:06,VALID,916.871,VALID,0.0,VALID,98.952,VALID,-0.02,VALID,19.578,VALID,115.0,VALID,0.0,
2018-12-11, 02:42:06,VALID,916.857,VALID,0.0,VALID,98.962,VALID,-0.001,VALID,19.561,VALID,108.0,VALID,0.0,
2018-12-11, 02:43:06,VALID,916.86,VALID,0.0,VALID,98.967,VALID,-0.001,VALID,19.543,VALID,110.0,VALID,0.0,
2018-12-11, 02:44:06,VALID,916.854,VALID,0.0,VALID,98.97,VALID,-0.015,VALID,19.527,VALID,109.0,VALID,0.0,
2018-12-11, 02:45:06,VALID,916.837,VALID,0.0,VALID,98.973,VALID,-0.01,VALID,19.511,VALID,114.0,VALID,0.0,
2018-12-11, 02:46:06,VALID,916.841,VALID,0.0,VALID,99.007,VALID,-0.011,VALID,19.501,VALID,109.0,VALID,0.0,
2018-12-11, 02:47:06,VALID,916.816,VALID,0.0,VALID,99.029,VALID,-0.014,VALID,19.503,VALID,117.0,VALID,0.0,
2018-12-11, 02:48:06,VALID,916.816,VALID,0.0,VALID,99.062,VALID,-0.012,VALID,19.499,VALID,113.0,VALID,0.0,
2018-12-11, 02:49:06,VALID,916.821,VALID,0.0,VALID,99.064,VALID,-0.016,VALID,19.495,VALID,123.0,VALID,0.0,
2018-12-11, 02:50:06,VALID,916.832,VALID,0.0,VALID,99.087,VALID,0.002,VALID,19.501,VALID,117.0,VALID,0.0,
2018-12-11, 02:51:06,VALID,916.832,VALID,0.0,VALID,99.097,VALID,-0.004,VALID,19.51,VALID,98.0,VALID,0.0,
2018-12-11, 02:52:06,VALID,916.827,VALID,0.0,VALID,99.108,VALID,-0.01,VALID,19.527,VALID,97.0,VALID,0.0,
2018-12-11, 02:53:06,VALID,916.835,VALID,0.0,VALID,99.137,VALID,-0.01,VALID,19.539,VALID,94.0,VALID,0.0,
2018-12-11, 02:54:06,VALID,916.834,VALID,0.0,VALID,99.135,VALID,-0.007,VALID,19.561,VALID,85.0,VALID,0.0,
2018-12-11, 02:55:06,VALID,916.851,VALID,0.0,VALID,99.147,VALID,-0.007,VALID,19.564,VALID,87.0,VALID,0.0,
2018-12-11, 02:56:06,VALID,916.845,VALID,0.0,VALID,99.126,VALID,-0.006,VALID,19.562,VALID,85.0,VALID,0.0,
2018-12-11, 02:57:06,VALID,916.842,VALID,0.0,VALID,99.109,VALID,-0.004,VALID,19.552,VALID,96.0,VALID,0.0,
2018-12-11, 02:58:06,VALID,916.862,VALID,0.0,VALID,99.086,VALID,-0.013,VALID,19.531,VALID,99.0,VALID,0.0,
2018-12-11, 02:59:06,VALID,916.85,VALID,0.0,VALID,99.066,VALID,-0.004,VALID,19.527,VALID,104.0,VALID,0.0,
2018-12-11, 03:00:06,VALID,916.84,VALID,0.0,VALID,99.056,VALID,-0.001,VALID,19.534,VALID,106.0,VALID,0.0,
2018-12-11, 03:01:06,VALID,916.822,VALID,0.0,VALID,99.063,VALID,0.001,VALID,19.538,VALID,110.0,VALID,0.0,
2018-12-11, 03:02:06,VALID,916.807,VALID,0.0,VALID,99.056,VALID,-0.001,VALID,19.552,VALID,115.0,VALID,0.0,
2018-12-11, 03:03:06,VALID,916.82,VALID,0.0,VALID,99.046,VALID,-0.002,VALID,19.562,VALID,109.0,VALID,0.0,
2018-12-11, 03:04:06,VALID,916.799,VALID,0.0,VALID,99.019,VALID,-0.01,VALID,19.562,VALID,103.0,VALID,0.0,
2018-12-11, 03:05:06,VALID,916.798,VALID,0.0,VALID,99.034,VALID,0.002,VALID,19.565,VALID,104.0,VALID,0.0,
2018-12-11, 03:06:06,VALID,916.785,VALID,0.0,VALID,99.02,VALID,-0.001,VALID,19.565,VALID,106.0,VALID,0.0,
2018-12-11, 03:07:06,VALID,916.796,VALID,0.0,VALID,98.991,VALID,0.006,VALID,19.571,VALID,109.0,VALID,0.0,
2018-12-11, 03:08:06,VALID,916.807,VALID,0.0,VALID,98.986,VALID,0.012,VALID,19.57,VALID,108.0,VALID,0.0,
2018-12-11, 03:09:06,VALID,916.798,VALID,0.0,VALID,98.982,VALID,0.017,VALID,19.575,VALID,104.0,VALID,0.0,
2018-12-11, 03:10:06,VALID,916.809,VALID,0.0,VALID,98.951,VALID,0.002,VALID,19.572,VALID,101.0,VALID,0.0,
2018-12-11, 03:11:06,VALID,916.814,VALID,0.0,VALID,98.947,VALID,-0.028,VALID,19.568,VALID,96.0,VALID,0.0,
2018-12-11, 03:12:06,VALID,916.812,VALID,0.0,VALID,98.939,VALID,-0.028,VALID,19.568,VALID,92.0,VALID,0.0,
2018-12-11, 03:13:06,VALID,916.84,VALID,0.0,VALID,98.922,VALID,-0.038,VALID,19.568,VALID,95.0,VALID,0.0,
2018-12-11, 03:14:06,VALID,916.845,VALID,0.0,VALID,98.924,VALID,-0.032,VALID,19.568,VALID,93.0,VALID,0.0,
2018-12-11, 03:15:06,VALID,916.836,VALID,0.0,VALID,98.904,VALID,-0.012,VALID,19.573,VALID,98.0,VALID,0.0,
2018-12-11, 03:16:06,VALID,916.842,VALID,0.0,VALID,98.908,VALID,-0.016,VALID,19.569,VALID,97.0,VALID,0.0,
2018-12-11, 03:17:06,VALID,916.841,VALID,0.0,VALID,98.885,VALID,-0.013,VALID,19.57,VALID,102.0,VALID,0.0,
2018-12-11, 03:18:06,VALID,916.833,VALID,0.0,VALID,98.916,VALID,-0.01,VALID,19.569,VALID,102.0,VALID,0.0,
2018-12-11, 03:19:06,VALID,916.848,VALID,0.0,VALID,98.889,VALID,-0.012,VALID,19.577,VALID,101.0,VALID,0.0,
2018-12-11, 03:20:06,VALID,916.831,VALID,0.0,VALID,98.931,VALID,-0.017,VALID,19.587,VALID,108.0,VALID,0.0,
2018-12-11, 03:21:06,VALID,916.842,VALID,0.0,VALID,98.927,VALID,-0.017,VALID,19.608,VALID,98.0,VALID,0.0,
2018-12-11, 03:22:06,VALID,916.817,VALID,0.0,VALID,98.923,VALID,-0.013,VALID,19.615,VALID,71.0,VALID,0.0,
2018-12-11, 03:23:06,VALID,916.816,VALID,0.0,VALID,98.931,VALID,-0.029,VALID,19.635,VALID,64.0,VALID,0.0,
2018-12-11, 03:24:06,VALID,916.824,VALID,0.0,VALID,98.926,VALID,-0.004,VALID,19.637,VALID,63.0,VALID,0.0,
2018-12-11, 03:25:06,VALID,916.828,VALID,0.0,VALID,98.904,VALID,-0.004,VALID,19.641,VALID,62.0,VALID,0.0,
2018-12-11, 03:26:06,VALID,916.836,VALID,0.0,VALID,98.933,VALID,-0.019,VALID,19.677,VALID,62.0,VALID,0.0,
2018-12-11, 03:27:06,VALID,916.823,VALID,0.0,VALID,98.952,VALID,-0.016,VALID,19.716,VALID,62.0,VALID,0.0,
2018-12-11, 03:28:06,VALID,916.835,VALID,0.0,VALID,98.983,VALID,-0.008,VALID,19.737,VALID,62.0,VALID,0.0,
2018-12-11, 03:29:06,VALID,916.826,VALID,0.0,VALID,98.946,VALID,0.005,VALID,19.718,VALID,62.0,VALID,0.0,
2018-12-11, 03:30:06,VALID,916.818,VALID,0.0,VALID,98.959,VALID,-0.005,VALID,19.723,VALID,62.0,VALID,0.0,
2018-12-11, 03:31:06,VALID,916.82,VALID,0.0,VALID,98.971,VALID,-0.015,VALID,19.711,VALID,62.0,VALID,0.0,
2018-12-11, 03:32:06,VALID,916.807,VALID,0.0,VALID,98.92,VALID,-0.012,VALID,19.693,VALID,62.0,VALID,0.0,
2018-12-11, 03:33:06,VALID,916.813,VALID,0.0,VALID,98.937,VALID,-0.016,VALID,19.69,VALID,75.0,VALID,0.0,
2018-12-11, 03:34:06,VALID,916.813,VALID,0.0,VALID,98.939,VALID,-0.019,VALID,19.676,VALID,101.0,VALID,0.0,
2018-12-11, 03:35:06,VALID,916.815,VALID,0.0,VALID,98.944,VALID,-0.016,VALID,19.679,VALID,101.0,VALID,0.0,
2018-12-11, 03:36:06,VALID,916.801,VALID,0.0,VALID,98.963,VALID,-0.007,VALID,19.688,VALID,101.0,VALID,0.0,
2018-12-11, 03:37:06,VALID,916.797,VALID,0.0,VALID,98.931,VALID,0.002,VALID,19.651,VALID,101.0,VALID,0.0,
2018-12-11, 03:38:06,VALID,916.791,VALID,0.0,VALID,98.892,VALID,-0.019,VALID,19.635,VALID,101.0,VALID,0.0,
2018-12-11, 03:39:06,VALID,916.787,VALID,0.0,VALID,98.919,VALID,-0.019,VALID,19.627,VALID,101.0,VALID,0.0,
2018-12-11, 03:40:06,VALID,916.777,VALID,0.0,VALID,98.896,VALID,-0.02,VALID,19.634,VALID,101.0,VALID,0.0,
2018-12-11, 03:41:06,VALID,916.764,VALID,0.0,VALID,98.943,VALID,0.005,VALID,19.656,VALID,101.0,VALID,0.0,
2018-12-11, 03:42:06,VALID,916.736,VALID,0.0,VALID,98.947,VALID,0.007,VALID,19.671,VALID,101.0,VALID,0.0,